#timestamp,LO_Frequency,Hit,StdDev 
1601139615.2,286047012.1,N
1601139635.0,286047015.6,Y
1601139635.9,286047015.6,P
1601139655.8,286047007.2,N
1601139675.6,286047006.0,N
1601139695.4,286047001.9,N
1601139715.3,286047004.3,N
1601139735.1,286046994.9,N
1601139755.8,286046999.4,N
1601139775.7,286046994.2,N
1601139795.5,286046994.5,N
1601139815.4,286046997.2,N
1601139835.2,286046999.3,N
1601139855.0,286046995.4,N
1601139855.9,286046995.4,N
1601139875.8,286047002.6,N
1601139895.6,286046998.1,N
1601139915.4,286046993.4,N
1601139935.3,286046996.5,N
1601139955.1,286047002.0,N
1601139975.9,286046998.2,N
1601139995.7,286047006.0,N
1601140015.5,286047006.7,N
1601140035.4,286047006.5,N
1601140055.2,286047002.9,N
1601140075.0,286047003.6,N
1601140076.0,286047003.6,N
1601140095.8,286047004.0,N
1601140115.6,286047004.1,N
1601140135.5,286047004.4,N
1601140155.3,286047005.0,N
1601140175.1,286047010.6,N
1601140195.9,286047008.3,N
1601140215.7,286047006.4,N
1601140235.6,286047006.4,N
1601140255.4,286047007.6,N
1601140275.2,286047005.3,N
1601140295.1,286047007.0,N
1601140296.0,286047007.0,N
1601140315.8,286047006.5,N
1601140335.6,286047008.4,N
1601140355.5,286047008.9,N
1601140375.3,286047009.0,N
1601140395.2,286047006.5,N
1601140415.9,286047006.9,N
1601140435.7,286047009.9,N
1601140455.6,286047015.5,Y
1601140475.4,286047008.6,P
1601140495.2,286047007.1,P
1601140515.1,286047005.4,P
1601140516.0,286047005.4,Y
1601140535.8,286046999.6,P
1601140555.7,286046999.3,N
1601140575.5,286046997.0,N
1601140595.3,286046998.9,N
1601140615.2,286046995.6,N
1601140635.0,286046992.6,N
1601140635.9,286046992.6,N
1601140655.8,286046990.5,N
1601140675.6,286046990.5,N
1601140695.4,286046991.4,N
1601140715.3,286046994.3,N
1601140735.1,286046996.5,N
1601140755.9,286047001.9,N
1601140775.7,286047000.3,N
1601140795.5,286047002.9,N
1601140815.4,286047001.4,N
1601140835.2,286047002.0,N
1601140855.0,286047001.1,N
1601140855.9,286047001.1,N
1601140875.8,286046998.6,N
1601140895.6,286046998.1,N
1601140915.5,286046993.3,N
1601140935.3,286046993.4,N
1601140955.1,286046990.1,N
1601140975.9,286046989.4,N
1601140995.7,286046989.9,N
1601141015.5,286046985.3,Y
1601141035.4,286046988.5,P
1601141055.2,286046996.1,N
1601141075.1,286046993.5,N
1601141076.0,286046993.5,N
1601141095.8,286046990.4,Y
1601141115.6,286046999.1,P
1601141135.5,286047000.1,N
1601141155.3,286047003.8,N
1601141175.2,286047003.3,N
1601141195.9,286047004.7,N
1601141245.8,286047015.3,E
1601141255.7,286047006.9,N
1601141275.5,286046997.0,P
1601141295.4,286046997.0,N
1601141315.2,286046996.7,N
1601141335.0,286046995.3,N
1601141335.9,286046995.3,N
1601141355.8,286046988.5,N
1601141375.6,286046988.3,N
1601141395.5,286046988.7,N
1601141415.3,286046989.6,N
1601141435.1,286046994.3,N
1601141455.9,286046992.2,N
1601141475.7,286046998.0,N
1601141495.5,286046999.6,N
1601141515.4,286046997.3,N
1601141535.2,286046993.0,N
1601141555.1,286046988.7,N
1601141556.0,286046988.7,N
1601141575.8,286046987.6,N
1601141595.6,286046985.9,N
1601141615.5,286046992.8,N
1601141635.3,286046994.3,N
1601141655.1,286046995.2,N
1601141675.9,286046995.7,N
1601141695.7,286046994.4,N
1601141715.6,286046994.9,N
1601141735.4,286046997.9,N
1601141755.2,286046995.0,N
1601141775.1,286047002.4,N
1601141776.0,286047002.4,N
1601141795.8,286047001.8,N
1601141815.6,286047003.7,N
1601141835.5,286047010.5,N
1601141855.3,286047009.9,N
1601141875.2,286047003.3,N
1601141895.9,286047007.3,N
1601141915.7,286047012.1,N
1601141935.6,286047009.1,N
1601141955.4,286047008.3,N
1601141975.2,286047011.6,N
1601141995.1,286047015.3,N
1601141996.0,286047015.3,N
1601142015.8,286047017.2,N
1601142035.7,286047015.9,N
1601142055.5,286047016.2,N
1601142075.3,286047019.8,N
1601142095.2,286047019.7,N
1601142115.0,286047020.1,N
1601142115.9,286047020.1,N
1601142135.8,286047014.4,N
1601142155.6,286047012.5,N
1601142175.4,286047018.6,N
1601142195.3,286047020.1,N
1601142215.1,286047016.3,N
1601142235.8,286047019.7,N
1601142255.7,286047017.0,N
1601142275.5,286047018.6,N
1601142295.4,286047018.3,N
1601142315.2,286047019.3,Y
1601142335.0,286047002.4,P
1601142335.9,286047002.4,N
1601142355.8,286047002.8,N
1601142375.6,286047003.0,N
1601142395.4,286047008.7,N
1601142415.3,286047011.5,N
1601142435.1,286047012.5,N
1601142455.9,286047011.4,N
1601142475.7,286047006.5,N
1601142495.5,286047010.1,N
1601142515.4,286047010.3,N
1601142535.2,286047010.8,N
1601142555.0,286047007.7,N
1601142556.0,286047007.7,N
1601142575.8,286047012.4,Y
1601142595.6,286047003.9,P
1601142615.5,286047003.4,N
1601142635.3,286047004.6,N
1601142655.1,286047008.3,Y
1601142675.9,286047002.3,P
1601142695.7,286046997.3,N
1601142715.6,286046993.4,N
1601142735.4,286046994.1,N
1601142755.2,286046997.5,N
1601142775.1,286046992.2,N
1601142776.0,286046992.2,N
1601142795.8,286046985.9,Y
1601142815.7,286046990.1,P
1601142835.5,286046992.2,N
1601142855.3,286046994.0,N
1601142875.2,286046998.2,N
1601142895.0,286046995.3,N
1601142895.9,286046995.3,N
1601142915.7,286046994.5,N
1601142935.6,286046991.9,Y
1601142955.4,286046997.0,P
1601142975.3,286046997.4,N
1601142995.1,286046993.9,P
1601143015.8,286046997.2,N
1601143035.7,286046994.0,Y
1601143055.5,286046996.1,P
1601143075.4,286046999.2,P
1601143095.2,286047003.2,N
1601143115.0,286047007.1,N
1601143115.9,286047007.1,N
1601143135.8,286047003.7,N
1601143155.6,286047002.1,N
1601143175.4,286047000.2,N
1601143195.3,286047004.4,N
